SL-16 DEB, 32005

Orbit data source: Space-Track

SL-16 DEB, 32005 is space debris in LEO originally from a launch on Thu, 10 Jun 2004 UTC launched from the Tyuratam Missile And Space Complex (TTMTR). Debris objects in space refer to the collection of defunct objects orbiting the Earth. Examples of debris include non-operational satellites, rocket bodies, and fragments generated from explosions, collisions, or faulty payload assembly.

Loading next visibility...
Identifier
32005, 2004-021H
Orbit
LEO
Country
Flag of CISCIS
Related business
Manufacturer
Unknown
Mission
Spacecraft
Bus & Motor
Unknown
Mass
Unknown
Launch date (UTC)
2004-06-10 (22 years ago)
Launch vehicle
Unknown
Launch site
Tyuratam Missile And Space Complex (TTMTR)
Object type
Payload
Rocket body
Debris
Shape & HBR
Unknown shape, 0.1 m
Radar Cross Section
Small (<0.1 m²)

Expand to show TLE details & history
Last TLE update: 3 weeks ago

TLE from 3 weeks ago
0 SL-16 DEB
1 32005U 04021H   26099.06602832  .00002664  00000-0  19002-2 0  9992
2 32005  71.0880 224.6835 0195826 161.1246 199.7259 13.89435613639944
Epoch: 2026-04-09T01:35Z
TLE epoch observation values (Epoch: 2026-04-09T01:35:04.846Z)
Latitude
-0.00007°
Longitude
3.5939°
Altitude
1,068.044 km
Speed
7.25 km/s
True Right ascension
14h 58m 44s
True Declination
0° 00' 00"
Sunlit
Object was in full shadow at epoch
Visualization orbit readout
Latitude
Unknown
Longitude
Unknown
Altitude
Unknown
Speed
Unknown
Apparent Right ascension
Unknown
Apparent Declination
Unknown
Sunlit
N/A
Visualization observer readout
Local Sidereal Time
23:07:06
Azimuth
Unknown
Elevation
Unknown
Doppler factor
Unknown
Orbital elements
Apogee altitude
1,071.634 km
Perigee altitude
785.466 km
Semi-major axis
7,306.687 km
Eccentricity
0.01958
Inclination
71.088°
RAAN
224.6835°
Arg. of periapsis
161.1246°
True anomaly
198.9856°
Mean anomaly
199.7259°
Eccentric anomaly
199.35406°
Mean motion
3.47506 °/min
Orbital period
103.6 mins
BSTAR
0.0019002
Loading maneuver chart data...
Computing Atmospheric mass density...
Loading historical data...
Loading historical data...
Loading historical data...
Loading historical data...
Loading historical data...
Loading historical data...
Loading historical data...

Documentation

Showing up to 5 results
|